| time (UTC) | temp C | wind direction | speed KPH | gust KPH | rain 1hr cm | rain 24hr cm | rain mn cm | humidity % | barometer mb |
| 20260506225749 | 39 | 0.0 | 0.0 | 0.00 | 0.00 | 0.00 | 16 | 1001.6 | |
| 20260506224749 | 40 | 0.0 | 0.0 | 0.00 | 0.00 | 0.00 | 16 | 1001.6 | |
| 20260506223749 | 39 | 0.0 | 0.0 | 0.00 | 0.00 | 0.00 | 16 | 1001.6 | |
| 20260506222749 | 35 | 0.0 | 0.0 | 0.00 | 0.00 | 0.00 | 18 | 1002.6 | |
| 20260506221749 | 38 | 0.0 | 0.0 | 0.00 | 0.00 | 0.00 | 16 | 1001.7 | |
| 20260506220749 | 34 | 0.0 | 0.0 | 0.00 | 0.00 | 0.00 | 20 | 1002.9 | |
| 20260506215749 | 36 | 0.0 | 0.0 | 0.00 | 0.00 | 0.00 | 18 | 1002.4 | |
| 20260506214749 | 36 | 0.0 | 0.0 | 0.00 | 0.00 | 0.00 | 18 | 1002.4 | |
| 20260506213749 | 35 | 0.0 | 0.0 | 0.00 | 0.00 | 0.00 | 19 | 1002.6 | |
| 20260506212749 | 35 | 0.0 | 0.0 | 0.00 | 0.00 | 0.00 | 18 | 1002.6 | |
| 20260506211749 | 43 | 0.0 | 0.0 | 0.00 | 0.00 | 0.00 | 12 | 1000.3 | |
| 20260506210749 | 45 | 0.0 | 0.0 | 0.00 | 0.00 | 0.00 | 11 | 999.8 | |
| 20260506205749 | 43 | 0.0 | 0.0 | 0.00 | 0.00 | 0.00 | 11 | 1000.0 | |
| 20260506204749 | 44 | 0.0 | 0.0 | 0.00 | 0.00 | 0.00 | 11 | 999.8 | |
| 20260506203749 | 45 | 0.0 | 0.0 | 0.00 | 0.00 | 0.00 | 11 | 999.5 | |
| 20260506202749 | 44 | 0.0 | 0.0 | 0.00 | 0.00 | 0.00 | 11 | 999.7 | |
| 20260506201749 | 43 | 0.0 | 0.0 | 0.00 | 0.00 | 0.00 | 11 | 999.9 | |
| 20260506200749 | 44 | 0.0 | 0.0 | 0.00 | 0.00 | 0.00 | 11 | 999.6 | |
| 20260506195749 | 42 | 0.0 | 0.0 | 0.00 | 0.00 | 0.00 | 12 | 1000.0 | |
| 20260506194749 | 41 | 0.0 | 0.0 | 0.00 | 0.00 | 0.00 | 13 | 1000.3 | |
| 20260506193749 | 42 | 0.0 | 0.0 | 0.00 | 0.00 | 0.00 | 12 | 999.8 | |
| 20260506192749 | 43 | 0.0 | 0.0 | 0.00 | 0.00 | 0.00 | 11 | 999.5 | |
| 20260506191749 | 44 | 0.0 | 0.0 | 0.00 | 0.00 | 0.00 | 11 | 999.3 | |
| 20260506190749 | 41 | 0.0 | 0.0 | 0.00 | 0.00 | 0.00 | 12 | 999.9 | |
| 20260506185749 | 43 | 0.0 | 0.0 | 0.00 | 0.00 | 0.00 | 11 | 999.5 | |
| 20260506184749 | 42 | 0.0 | 0.0 | 0.00 | 0.00 | 0.00 | 12 | 999.6 | |
| 20260506183749 | 42 | 0.0 | 0.0 | 0.00 | 0.00 | 0.00 | 11 | 999.6 | |
| 20260506182749 | 40 | 0.0 | 0.0 | 0.00 | 0.00 | 0.00 | 12 | 1000.2 | |
| 20260506181749 | 44 | 0.0 | 0.0 | 0.00 | 0.00 | 0.00 | 11 | 999.2 | |
| 20260506180749 | 40 | 0.0 | 0.0 | 0.00 | 0.00 | 0.00 | 12 | 1000.3 | |
| 20260506175749 | 41 | 0.0 | 0.0 | 0.00 | 0.00 | 0.00 | 12 | 1000.0 | |
| 20260506174749 | 43 | 0.0 | 0.0 | 0.00 | 0.00 | 0.00 | 11 | 999.7 | |
| 20260506173749 | 41 | 0.0 | 0.0 | 0.00 | 0.00 | 0.00 | 12 | 1000.1 | |
| 20260506172749 | 43 | 0.0 | 0.0 | 0.00 | 0.00 | 0.00 | 11 | 999.7 | |
| 20260506171749 | 41 | 0.0 | 0.0 | 0.00 | 0.00 | 0.00 | 12 | 1000.2 | |
| 20260506170749 | 46 | 0.0 | 0.0 | 0.00 | 0.00 | 0.00 | 9 | 998.9 | |
| 20260506165749 | 42 | 0.0 | 0.0 | 0.00 | 0.00 | 0.00 | 11 | 1000.0 | |
| 20260506164749 | 47 | 0.0 | 0.0 | 0.00 | 0.00 | 0.00 | 9 | 998.8 | |
| 20260506163749 | 43 | 0.0 | 0.0 | 0.00 | 0.00 | 0.00 | 10 | 999.8 | |
| 20260506162749 | 43 | 0.0 | 0.0 | 0.00 | 0.00 | 0.00 | 10 | 999.7 | |
| 20260506161749 | 46 | 0.0 | 0.0 | 0.00 | 0.00 | 0.00 | 9 | 999.1 | |
| 20260506160749 | 47 | 0.0 | 0.0 | 0.00 | 0.00 | 0.00 | 8 | 998.9 | |
| 20260506155749 | 45 | 0.0 | 0.0 | 0.00 | 0.00 | 0.00 | 10 | 999.4 | |
| 20260506154749 | 43 | 0.0 | 0.0 | 0.00 | 0.00 | 0.00 | 10 | 999.8 | |
| 20260506153749 | 45 | 0.0 | 0.0 | 0.00 | 0.00 | 0.00 | 9 | 999.6 | |
| 20260506152749 | 40 | 0.0 | 0.0 | 0.00 | 0.00 | 0.00 | 11 | 1001.1 | |
| 20260506151749 | 44 | 0.0 | 0.0 | 0.00 | 0.00 | 0.00 | 10 | 1000.2 | |
| 20260506150749 | 45 | 0.0 | 0.0 | 0.00 | 0.00 | 0.00 | 9 | 1000.0 | |
| 20260506145749 | 41 | 0.0 | 0.0 | 0.00 | 0.00 | 0.00 | 11 | 1000.9 | |
| 20260506144749 | 39 | 0.0 | 0.0 | 0.00 | 0.00 | 0.00 | 12 | 1001.5 | |
| 20260506143749 | 44 | 0.0 | 0.0 | 0.00 | 0.00 | 0.00 | 10 | 1000.5 | |
| 20260506142749 | 38 | 0.0 | 0.0 | 0.00 | 0.00 | 0.00 | 13 | 1002.1 | |
| 20260506141749 | 39 | 0.0 | 0.0 | 0.00 | 0.00 | 0.00 | 12 | 1001.9 | |
| 20260506140749 | 39 | 0.0 | 0.0 | 0.00 | 0.00 | 0.00 | 12 | 1002.1 | |
| 20260506135749 | 42 | 0.0 | 0.0 | 0.00 | 0.00 | 0.00 | 10 | 1001.3 | |
| 20260506134749 | 41 | 0.0 | 0.0 | 0.00 | 0.00 | 0.00 | 11 | 1001.6 | |
| 20260506133749 | 40 | 0.0 | 0.0 | 0.00 | 0.00 | 0.00 | 11 | 1002.0 | |
| 20260506132749 | 45 | 0.0 | 0.0 | 0.00 | 0.00 | 0.00 | 9 | 1000.8 | |
| 20260506131749 | 43 | 0.0 | 0.0 | 0.00 | 0.00 | 0.00 | 10 | 1001.5 | |
| 20260506130749 | 41 | 0.0 | 0.0 | 0.00 | 0.00 | 0.00 | 11 | 1001.9 | |
| 20260506125749 | 45 | 0.0 | 0.0 | 0.00 | 0.00 | 0.00 | 10 | 1001.1 | |
| 20260506124750 | 41 | 0.0 | 0.0 | 0.00 | 0.00 | 0.00 | 11 | 1002.1 | |
| 20260506123749 | 46 | 0.0 | 0.0 | 0.00 | 0.00 | 0.00 | 10 | 1001.1 | |
| 20260506122749 | 46 | 0.0 | 0.0 | 0.00 | 0.00 | 0.00 | 9 | 1001.1 | |
| 20260506121749 | 43 | 0.0 | 0.0 | 0.00 | 0.00 | 0.00 | 10 | 1002.1 | |
| 20260506120749 | 38 | 0.0 | 0.0 | 0.00 | 0.00 | 0.00 | 13 | 1003.3 | |
| 20260506115749 | 40 | 0.0 | 0.0 | 0.00 | 0.00 | 0.00 | 12 | 1003.2 | |
| 20260506114749 | 39 | 0.0 | 0.0 | 0.00 | 0.00 | 0.00 | 13 | 1003.4 | |
| 20260506113749 | 42 | 0.0 | 0.0 | 0.00 | 0.00 | 0.00 | 12 | 1002.9 | |
| 20260506112749 | 42 | 0.0 | 0.0 | 0.00 | 0.00 | 0.00 | 11 | 1002.7 | |
| 20260506111749 | 40 | 0.0 | 0.0 | 0.00 | 0.00 | 0.00 | 12 | 1003.5 | |
| 20260506110749 | 45 | 0.0 | 0.0 | 0.00 | 0.00 | 0.00 | 10 | 1002.4 | |
| 20260506105749 | 35 | 0.0 | 0.0 | 0.00 | 0.00 | 0.00 | 15 | 1004.8 | |
| 20260506104749 | 41 | 0.0 | 0.0 | 0.00 | 0.00 | 0.00 | 12 | 1003.3 | |
| 20260506103750 | 42 | 0.0 | 0.0 | 0.00 | 0.00 | 0.00 | 12 | 1003.0 | |
| 20260506102749 | 40 | 0.0 | 0.0 | 0.00 | 0.00 | 0.00 | 13 | 1003.4 | |
| 20260506101749 | 42 | 0.0 | 0.0 | 0.00 | 0.00 | 0.00 | 12 | 1003.1 | |
| 20260506100749 | 39 | 0.0 | 0.0 | 0.00 | 0.00 | 0.00 | 13 | 1003.8 | |
| 20260506095749 | 43 | 0.0 | 0.0 | 0.00 | 0.00 | 0.00 | 11 | 1002.6 | |
| 20260506094749 | 45 | 0.0 | 0.0 | 0.00 | 0.00 | 0.00 | 10 | 1002.3 | |
| 20260506093749 | 37 | 0.0 | 0.0 | 0.00 | 0.00 | 0.00 | 14 | 1004.4 | |
| 20260506092749 | 38 | 0.0 | 0.0 | 0.00 | 0.00 | 0.00 | 14 | 1004.1 | |
| 20260506091749 | 38 | 0.0 | 0.0 | 0.00 | 0.00 | 0.00 | 14 | 1004.3 | |
| 20260506090749 | 37 | 0.0 | 0.0 | 0.00 | 0.00 | 0.00 | 14 | 1004.4 | |
| 20260506085749 | 36 | 0.0 | 0.0 | 0.00 | 0.00 | 0.00 | 15 | 1004.6 | |
| 20260506084749 | 32 | 0.0 | 0.0 | 0.00 | 0.00 | 0.00 | 19 | 1005.7 | |
| 20260506083749 | 36 | 0.0 | 0.0 | 0.00 | 0.00 | 0.00 | 18 | 1004.6 | |
| 20260506082749 | 36 | 0.0 | 0.0 | 0.00 | 0.00 | 0.00 | 17 | 1004.6 | |
| 20260506081749 | 33 | 0.0 | 0.0 | 0.00 | 0.00 | 0.00 | 19 | 1005.6 | |
| 20260506080749 | 38 | 0.0 | 0.0 | 0.00 | 0.00 | 0.00 | 17 | 1004.2 | |
| 20260506072749 | 34 | 0.0 | 0.0 | 0.00 | 0.00 | 0.00 | 19 | 1005.1 | |
| 20260506071749 | 35 | 0.0 | 0.0 | 0.00 | 0.00 | 0.00 | 19 | 1005.0 | |
| 20260506070749 | 34 | 0.0 | 0.0 | 0.00 | 0.00 | 0.00 | 20 | 1005.4 | |
| 20260506061749 | 43 | 0.0 | 0.0 | 0.00 | 0.00 | 0.00 | 12 | 1002.8 | |
| 20260506060749 | 46 | 0.0 | 0.0 | 0.00 | 0.00 | 0.00 | 12 | 1002.4 | |
| 20260506050749 | 32 | 0.0 | 0.0 | 0.00 | 0.00 | 0.00 | 21 | 1005.4 | |
| 20260506044750 | 36 | 0.0 | 0.0 | 0.00 | 0.00 | 0.00 | 17 | 1004.4 | |
| 20260506043749 | 30 | 0.0 | 0.0 | 0.00 | 0.00 | 0.00 | 22 | 1006.2 | |
| 20260506042749 | 37 | 0.0 | 0.0 | 0.00 | 0.00 | 0.00 | 16 | 1004.2 | |
| 20260506041749 | 33 | 0.0 | 0.0 | 0.00 | 0.00 | 0.00 | 18 | 1005.2 | |
| 20260506040749 | 36 | 0.0 | 0.0 | 0.00 | 0.00 | 0.00 | 17 | 1004.7 | |
| 20260506035749 | 37 | 0.0 | 0.0 | 0.00 | 0.00 | 0.00 | 16 | 1004.3 | |
| 20260506034749 | 38 | 0.0 | 0.0 | 0.00 | 0.00 | 0.00 | 15 | 1004.2 | |
| 20260506033749 | 37 | 0.0 | 0.0 | 0.00 | 0.00 | 0.00 | 16 | 1004.4 | |
| 20260506032749 | 36 | 0.0 | 0.0 | 0.00 | 0.00 | 0.00 | 17 | 1004.8 | |
| 20260506031749 | 36 | 0.0 | 0.0 | 0.00 | 0.00 | 0.00 | 17 | 1004.8 | |
| 20260506030749 | 35 | 0.0 | 0.0 | 0.00 | 0.00 | 0.00 | 19 | 1005.0 | |
| 20260506025749 | 32 | 0.0 | 0.0 | 0.00 | 0.00 | 0.00 | 21 | 1005.7 | |
| 20260506024749 | 34 | 0.0 | 0.0 | 0.00 | 0.00 | 0.00 | 18 | 1005.3 | |
| 20260506023749 | 34 | 0.0 | 0.0 | 0.00 | 0.00 | 0.00 | 19 | 1005.2 | |
| 20260506022749 | 30 | 0.0 | 0.0 | 0.00 | 0.00 | 0.00 | 23 | 1006.4 | |
| 20260506021749 | 33 | 0.0 | 0.0 | 0.00 | 0.00 | 0.00 | 20 | 1005.6 | |
| 20260506020749 | 32 | 0.0 | 0.0 | 0.00 | 0.00 | 0.00 | 20 | 1005.8 | |
| 20260506015749 | 36 | 0.0 | 0.0 | 0.00 | 0.00 | 0.00 | 18 | 1004.8 | |
| 20260506014749 | 35 | 0.0 | 0.0 | 0.00 | 0.00 | 0.00 | 19 | 1005.4 | |
| 20260506013749 | 36 | 0.0 | 0.0 | 0.00 | 0.00 | 0.00 | 18 | 1005.0 | |
| 20260506012749 | 33 | 0.0 | 0.0 | 0.00 | 0.00 | 0.00 | 20 | 1005.7 | |
| 20260506011749 | 35 | 0.0 | 0.0 | 0.00 | 0.00 | 0.00 | 19 | 1005.5 | |
| 20260506010749 | 39 | 0.0 | 0.0 | 0.00 | 0.00 | 0.00 | 16 | 1004.5 | |
| 20260506005749 | 36 | 0.0 | 0.0 | 0.00 | 0.00 | 0.00 | 18 | 1005.2 | |
| 20260506004749 | 33 | 0.0 | 0.0 | 0.00 | 0.00 | 0.00 | 20 | 1006.0 | |
| 20260506003749 | 35 | 0.0 | 0.0 | 0.00 | 0.00 | 0.00 | 20 | 1005.8 | |
| 20260506002749 | 32 | 0.0 | 0.0 | 0.00 | 0.00 | 0.00 | 21 | 1006.5 | |
| 20260506001749 | 33 | 0.0 | 0.0 | 0.00 | 0.00 | 0.00 | 21 | 1006.3 | |
| 20260506000749 | 35 | 0.0 | 0.0 | 0.00 | 0.00 | 0.00 | 20 | 1005.8 | |
| 20260505235749 | 36 | 0.0 | 0.0 | 0.00 | 0.00 | 0.00 | 18 | 1005.5 | |
| 20260505234749 | 34 | 0.0 | 0.0 | 0.00 | 0.00 | 0.00 | 20 | 1006.0 | |
| 20260505233749 | 36 | 0.0 | 0.0 | 0.00 | 0.00 | 0.00 | 18 | 1005.4 | |
| 20260505232749 | 35 | 0.0 | 0.0 | 0.00 | 0.00 | 0.00 | 19 | 1005.8 | |
| 20260505231749 | 34 | 0.0 | 0.0 | 0.00 | 0.00 | 0.00 | 20 | 1006.2 | |
| 20260505230749 | 36 | 0.0 | 0.0 | 0.00 | 0.00 | 0.00 | 18 | 1005.6 |